Regional Weather Roundup
Issued by NWS

Home | Current Version | Previous Version | Text Only | Print | Product List | Glossary Off
Versions: 1 2 3 4 5 6 7 8 9 10 11 12 13 14 15 16 17 18 19 20 21 22 23 24 25 26 27 28 29 30 31 32 33 34 35 36 37 38 39 40 41 42 43 44 45 46 47 48 49 50

000
ASUS45 KCYS 210910
RWRWY

WYOMING REGIONAL WEATHER ROUNDUP
NATIONAL WEATHER SERVICE CHEYENNE WY
300 AM MDT THU AUG 21 2014

NOTE:  "FAIR" INDICATES FEW OR NO CLOUDS BELOW 12,000 FEET
WITH NO SIGNIFICANT WEATHER AND/OR OBSTRUCTIONS TO VISIBILITY.

WYZ001-211000-
YELLOWSTONE NATIONAL PARK

CITY           SKY/WX    TMP DP  RH WIND       PRES   REMARKS
LK YELLOWSTONE   N/A     42  41  96 CALM      30.20R
W YELLOWSTONE  NOT AVBL

$$
WYZ002>013-054>058-071-098>099-211000-
NORTHERN WYOMING

CITY           SKY/WX    TMP DP  RH WIND       PRES   REMARKS
JACKSON        CLOUDY    52  52 100 S3        30.15R
CODY           CLOUDY    57  45  62 E3        30.01R
GREYBULL       PTCLDY    61  53  75 N5        29.94R
WORLAND        PTCLDY    56  49  77 SW9       29.97R
SHERIDAN       PTCLDY    61  48  62 NW6       29.95S
BUFFALO        PTCLDY    60  46  59 NW10      29.99F
GILLETTE       CLOUDY    60  57  89 SW5       29.93F
HULETT         CLOUDY    61  52  72 MISG      29.95
NEWCASTLE      FAIR      66  46  48 MISG      29.93

$$
WYZ014>020-022>026-101>103-211000-
CENTRAL WYOMING

CITY           SKY/WX    TMP DP  RH WIND       PRES   REMARKS
BIG PINEY      MOCLDY    48  45  89 S5        30.19R
PINEDALE       MOSUNNY   46  45  93 CALM      30.20R
DUBOIS         FAIR      50  41  71 NW14G20   30.12R
LANDER         CLOUDY    60  47  61 S3        30.01F
RIVERTON       MOCLDY    62  41  46 W8        30.03S
CASPER         PTCLDY    57  43  59 SW10      30.02R
DOUGLAS        MOCLDY    62  48  60 CALM      30.00R

$$
WYZ021-027>030-104>119-211000-
SOUTHERN WYOMING

CITY           SKY/WX    TMP DP  RH WIND       PRES   REMARKS
EVANSTON       CLOUDY    51  49  92 SE7       30.19F
KEMMERER       CLOUDY    50  46  87 S8        30.19F
FORT BRIDGER     N/A     51  50  95 S9        30.22F
ROCK SPRINGS   MOCLDY    48  44  86 SW12      30.19F
DIXON          FAIR      51  49  93 E3        30.21R
RAWLINS        PTCLDY    52  46  80 SW9       30.15F
SARATOGA       FAIR      48  46  93 MISG      30.20R
LARAMIE        PTCLDY    51  42  71 W6        30.17R
CHEYENNE       PTCLDY    58  44  60 W9        30.08S
TORRINGTON     CLEAR     59  49  69 CALM      29.93R
PINE BLUFFS    FAIR      63  48  59 W9        30.03R

$$



USA.gov is the U.S. government's official web portal to all federal, state and local government web resources and services.